Presure
148 174 161 176 170 171 189 170 170 171 183 167 175 172 172 171 205 202 223 199 185 195 192 204 191 204 232 209 241 214 232 221 203 221 215 223 246 229 182 223 195 261 188 188 192
174 160 169 139 139 161 157 144 173 190 172 193 176 167 191 213 209 211 195 218 205 223 193 224 207 202 214 208 217 233 217 228 200 218 212 217 236 237 221 224 224 182 257 231 202
152 180 153 149 162 183 163 183 173 175 125 152 174 162 158 181 176 211 178 214 197 199 190 198 196 223 202 199 205 209 228 222 229 197 225 214 230 233 250 236 211 234 233 220 245
179 148 182 162 151 163 184 165 189 139 149 147 205 149 206 149 203 223 160 192 188 224 185 220 177 221 181 187 214 198 217 213 221 224 210 203 216 222 228 226 242 215 234 240 205
141 174 186 156 161 148 159 158 166 144 167 185 155 177 190 165 161 177 194 179 173 186 218 218 231 185 208 197 215 188 221 210 203 224 223 199 218 223 219 214 232 237 251 229 208
158 160 167 129 123 147 202 154 168 173 156 148 165 217 196 199 195 170 183 157 172 183 187 218 227 223 200 230 234 211 221 221 223 214 216 220 217 214 206 220 223 222 233 237 222
140 147 158 141 135 178 165 129 192 178 201 152 184 170 158 184 171 222 216 187 184 224 220 216 199 193 224 226 232 210 218 191 229 238 201 214 222 221 210 215 211 218 220 236 241
152 142 155 205 149 150 159 150 162 149 171 161 216 196 221 184 177 197 215 224 220 229 218 225 235 236 210 234 220 211 235 238 220 227 241 208 215 225 212 217 223 226 234 223 123
135 188 163 187 197 164 166 188 195 160 162 156 165 169 170 174 169 217 216 225 214 229 236 221 238 246 242 253 219 252 217 219 208 219 246 228 235 211 225 218 211 227 224 236 230
145 181 156 193 159 182 164 163 158 152 145 152 149 228 220 176 205 202 204 211 236 233 249 263 246 254 259 261 262 245 239 235 234 235 219 184 227 240 225 224 220 221 225 208 235
158 137 192 184 163 205 149 219 203 176 212 162 164 225 179 234 228 224 239 248 260 258 267 261 256 274 275 279 260 266 258 253 249 252 256 250 253 244 227 222 224 224 222 228 229
179 155 181 177 184 165 134 150 178 181 166 205 232 236 226 235 244 117 261 273 315 369 281 273 278 299 283 333 307 287 276 273 255 255 262 257 265 258 249 253 235 231 221 222 232
176 173 157 147 156 185 220 196 218 200 222 223 76 236 245 272 284 342 384 380 363 343 361 309 377 348 326 323 308 326 303 290 274 270 276 269 272 275 258 261 258 256 230 235 240
169 158 193 176 182 184 187 215 192 225 235 239 250 267 300 371 375 335 435 492 466 490 308 328 436 339 366 320 305 340 327 300 287 276 289 283 281 270 254 227 112 259 263 259 231
179 177 194 142 183 188 187 176 231 237 239 265 302 359 357 341 275 439 437 466 423 423 430 459 66 428 323 357 325 310 324 313 299 287 291 283 280 269 284 290 290 288 276 263 262
145 161 194 190 184 203 226 228 244 239 266 360 339 360 518 505 498 229 487 455 442 326 422 395 428 406 380 313 351 203 293 314 315 311 302 226 302 166 298 276 274 278 273 273 269
156 202 191 183 190 219 237 234 246 267 324 339 438 468 539 486 517 533 491 417 412 385 396 393 420 397 376 340 296 286 298 302 314 325 180 306 215 317 305 265 270 275 269 211 253
181 149 206 205 205 222 228 257 244 360 337 330 499 505 503 491 484 484 491 88 409 374 367 373 398 186 387 348 287 294 287 289 303 306 312 88 340 137 275 107 272 264 259 262 261
159 194 209 220 233 242 235 256 315 347 308 501 493 486 485 460 450 449 424 455 407 368 367 356 350 363 353 335 313 296 321 291 299 276 309 296 236 318 157 293 265 254 256 263 264
205 214 188 196 236 243 258 260 367 315 500 485 463 453 453 448 440 453 409 428 430 389 386 344 342 344 350 350 321 288 265 278 266 301 151 139 243 114 223 202 270 258 260 268 269
209 166 202 239 228 251 269 366 336 467 486 461 456 434 428 428 429 439 405 420 421 363 359 348 330 343 341 323 307 304 280 277 301 311 301 300 303 87 124 244 250 254 263 271 281
160 192 220 231 173 290 338 303 313 473 462 455 428 430 425 420 418 420 419 398 430 354 351 346 211 344 328 324 315 298 282 268 265 261 275 298 308 298 284 273 112 276 271 272 284
190 188 246 220 258 275 342 315 482 471 428 427 437 422 410 413 426 414 415 395 374 384 362 354 334 315 324 326 312 296 288 270 272 307 317 323 287 291 137 136 124 271 269 279 281
196 192 233 237 271 342 344 450 456 455 426 410 417 416 399 411 425 420 401 408 366 458 372 359 335 317 329 347 315 307 299 292 285 286 251 289 294 209 193 183 189 94 187 84 193
202 191 242 278 258 325 326 482 445 441 441 413 416 403 402 420 420 416 409 414 372 388 412 355 367 325 314 322 306 300 293 291 291 315 301 296 61 276 86 178 239 243 287 286 117
200 232 242 279 346 313 316 428 459 435 422 419 408 420 423 411 408 411 406 399 381 408 377 358 359 317 318 301 328 293 288 287 274 282 277 289 278 282 296 301 303 307 310 308 298
243 210 281 267 325 361 438 435 438 439 433 417 431 427 411 397 387 392 398 401 404 387 351 354 346 312 313 303 317 287 288 283 273 274 272 273 289 222 295 294 297 304 298 290 286
Wind_Speed
28 26 39 33 39 40 33 47 54 55 51 53 56 58 58 61 45 51 43 61 63 62 64 59 61 54 46 56 50 59 51 55 65 59 61 61 60 63 66 65 65 61 69 65 73
31 41 32 38 38 50 53 44 55 40 62 48 56 51 51 41 42 50 64 50 58 51 68 49 62 60 58 61 53 49 56 53 68 61 60 57 55 61 64 67 66 69 60 64 75
48 37 49 51 55 45 56 48 59 61 57 48 58 64 50 67 71 57 61 55 64 58 69 70 69 55 67 65 65 62 47 58 58 71 58 59 58 59 51 61 71 62 63 65 65
40 38 43 55 57 56 55 66 51 47 49 53 50 54 56 55 58 57 60 76 74 64 68 64 68 62 65 64 67 63 62 64 61 65 66 67 61 59 60 65 60 68 63 61 70
50 49 50 54 57 60 66 66 73 52 73 73 56 63 59 83 84 62 81 82 72 74 73 72 72 76 69 77 72 65 63 70 71 67 67 70 64 67 63 68 67 61 57 65 68
46 44 44 49 52 66 54 71 78 79 75 53 79 70 76 79 85 87 89 63 85 96 95 81 80 77 86 73 77 75 71 71 69 72 72 70 69 70 70 71 73 67 63 64 69
52 67 42 46 56 66 77 51 63 72 70 64 87 92 61 91 99 83 78 100 97 88 84 84 85 92 85 84 80 81 76 77 69 74 75 77 74 70 79 78 76 71 68 63 63
61 65 65 66 72 74 82 82 90 75 97 77 92 81 88 94 91 87 91 92 94 97 90 100 104 100 95 94 83 85 84 78 77 79 80 86 72 80 80 82 83 78 74 67 47
58 54 62 74 83 66 64 70 73 94 97 86 101 92 100 84 96 91 96 107 103 110 111 105 109 111 105 103 92 96 85 84 91 87 88 90 79 86 86 87 84 82 74 72 67
73 63 76 81 72 67 89 90 90 92 86 73 64 107 98 103 92 93 106 109 115 114 116 116 114 118 110 107 99 95 99 96 93 98 96 71 88 95 91 90 88 82 78 72 72
77 72 82 68 89 100 83 102 87 90 104 112 108 107 106 115 112 110 120 120 122 119 113 114 118 117 104 101 97 110 107 104 99 105 104 95 97 98 95 93 91 86 81 76 74
76 75 76 69 80 91 69 94 103 105 101 113 116 120 112 118 113 43 125 123 121 104 112 116 116 106 99 96 108 108 109 103 102 105 109 101 100 102 97 96 96 91 85 80 82
64 83 92 95 99 102 112 96 116 107 118 115 20 117 124 125 117 111 103 100 97 99 90 106 85 86 94 97 101 101 101 98 101 107 108 105 99 98 97 97 96 93 89 87 84
67 89 112 80 100 96 95 123 110 121 124 125 126 132 127 115 106 98 91 55 58 53 94 90 61 84 78 94 93 93 86 92 98 102 99 103 95 95 89 76 34 88 87 88 83
80 83 115 88 92 97 109 109 131 131 134 139 136 117 108 106 66 65 58 48 55 55 44 55 23 66 86 76 82 83 75 84 92 97 99 100 89 79 85 80 76 78 78 78 80
100 100 115 106 98 123 126 133 136 135 141 125 116 114 55 48 53 33 44 43 40 46 46 50 50 63 65 77 71 71 82 77 80 86 96 66 83 35 72 72 73 69 74 76 79
102 130 114 100 118 142 137 140 142 143 134 120 99 76 29 34 36 29 47 38 40 34 34 42 48 57 60 66 82 80 78 81 79 82 44 73 69 62 63 70 71 71 74 70 79
102 100 132 134 131 144 141 141 140 130 122 116 50 36 23 28 27 27 22 43 40 34 37 33 35 33 58 62 77 76 76 76 72 67 65 30 72 5 60 43 69 73 79 79 76
103 122 126 137 140 141 143 145 139 122 120 41 35 28 23 24 26 22 26 31 42 42 43 33 31 44 58 61 68 73 72 66 68 67 67 59 36 51 35 59 72 81 80 76 75
138 140 121 130 141 144 147 149 121 120 35 29 31 29 26 23 21 18 24 32 39 46 44 44 32 48 48 51 62 72 72 73 63 71 37 31 44 22 48 46 76 80 78 74 73
144 98 144 140 147 148 147 123 123 47 27 29 26 30 28 22 21 15 25 26 35 40 39 49 43 48 55 63 70 68 74 73 72 70 62 54 49 34 45 56 65 75 75 70 69
93 129 147 142 93 142 130 124 119 37 29 25 32 24 22 26 20 16 20 26 31 41 42 51 45 50 60 68 68 66 72 71 68 57 50 52 54 53 52 61 49 71 70 66 67
128 116 134 141 144 142 125 119 30 23 42 35 25 23 28 26 23 15 17 25 31 51 49 57 54 43 57 64 66 72 73 69 59 56 53 54 45 50 42 51 31 66 65 64 67
138 124 141 149 144 132 123 57 39 27 37 38 31 25 29 23 20 14 17 22 30 27 52 59 59 52 53 53 71 68 65 63 60 52 38 43 50 48 44 37 38 27 43 33 48
146 120 148 141 145 125 122 27 38 26 22 35 27 27 29 24 16 14 14 20 30 38 50 55 55 55 56 55 66 62 60 56 51 44 44 46 10 49 33 45 46 46 53 56 46
145 146 146 141 131 123 121 54 27 28 30 26 30 28 25 16 11 7 12 20 26 35 50 46 47 64 61 61 53 60 57 52 48 46 49 45 48 49 45 46 47 50 50 55 55
138 143 143 138 137 111 55 47 36 27 20 25 23 20 13 9 6 6 14 16 20 37 41 44 53 68 66 68 58 61 56 47 47 48 48 53 50 34 44 42 46 49 51 53 56
Wind_Direction
294 304 311 316 308 305 297 298 296 297 284 291 290 287 285 284 283 281 289 272 275 274 273 270 267 267 267 264 267 260 264 257 257 256 253 254 249 249 240 246 240 242 239 236 239
317 314 302 294 291 304 304 289 293 300 291 299 295 289 303 315 298 291 273 281 277 279 278 274 269 269 267 267 264 265 260 263 253 255 251 250 251 248 245 245 241 240 243 238 238
316 311 309 309 302 317 302 298 294 288 270 291 292 300 282 283 288 298 292 281 279 278 274 271 274 265 268 268 266 263 258 258 261 254 255 250 252 250 251 245 242 242 238 239 237
322 303 297 302 312 298 302 297 290 273 296 274 319 275 317 278 295 297 276 284 283 292 281 283 273 272 266 268 260 264 258 256 254 256 249 246 250 251 250 248 249 240 239 235 237
321 319 321 299 296 305 297 300 292 293 292 302 284 294 310 296 290 290 291 287 286 288 289 283 283 272 268 270 259 260 253 255 254 250 251 248 249 252 249 247 252 245 242 235 236
313 310 307 298 282 307 326 303 290 293 300 295 286 322 290 309 291 293 285 274 291 284 280 287 284 270 268 270 272 253 251 250 256 248 249 247 245 245 243 250 251 243 242 236 232
322 314 304 318 312 309 288 274 302 290 319 298 283 291 297 279 288 305 297 282 282 293 286 280 279 276 268 263 263 252 251 256 248 256 251 247 243 244 243 245 242 246 240 241 232
303 315 303 333 299 302 295 309 291 302 295 304 322 305 321 291 299 291 299 299 291 290 278 280 278 274 274 266 265 258 256 257 253 250 251 244 237 240 241 243 248 247 247 238 230
319 315 287 341 341 288 299 322 321 295 296 306 297 295 295 290 294 303 298 296 288 287 281 275 275 274 267 267 262 264 254 252 244 245 253 244 237 239 237 239 239 246 241 245 240
313 333 294 340 286 313 305 299 303 308 303 303 282 317 314 293 298 294 288 286 284 281 280 277 273 270 266 266 268 267 259 254 251 251 243 243 235 237 237 236 239 239 241 240 241
301 321 341 320 287 334 309 329 319 287 323 296 300 317 300 309 304 298 293 288 285 281 277 271 269 270 272 270 268 259 255 254 253 252 249 247 243 242 236 236 238 240 239 240 239
324 328 324 309 320 288 301 310 305 300 291 311 317 314 308 303 299 283 291 285 280 276 271 269 270 272 270 261 255 254 252 253 251 251 250 247 243 244 242 241 237 236 236 236 240
322 309 291 312 301 312 328 320 326 309 317 316 264 310 304 300 294 290 287 282 276 271 270 267 264 260 254 253 256 251 252 252 250 249 247 247 244 243 245 243 241 241 236 239 240
315 296 336 305 329 319 314 328 310 322 320 316 315 307 302 299 297 291 295 278 270 258 264 259 251 253 247 252 255 253 253 251 249 249 248 246 244 243 245 245 239 240 243 242 236
324 318 332 316 310 313 308 300 322 321 319 315 310 306 304 301 293 284 279 261 267 268 249 251 241 235 249 242 248 252 247 248 246 248 248 245 245 244 244 244 244 244 242 240 238
317 309 331 326 314 328 323 324 320 321 318 311 311 309 300 291 277 246 260 261 251 251 233 242 240 232 231 245 233 239 245 243 244 245 246 241 248 235 239 240 240 238 236 234 234
302 335 329 313 322 330 324 324 322 318 317 315 312 311 317 288 289 290 268 242 244 245 233 233 240 223 221 226 242 246 240 241 239 238 243 248 249 242 235 238 238 233 235 231 231
326 310 335 333 332 328 327 321 326 318 319 318 315 321 325 310 299 286 291 245 218 216 233 232 226 234 217 212 238 238 242 243 246 249 250 248 243 61 233 218 230 231 232 233 232
311 327 330 330 327 325 326 323 321 322 321 319 322 327 322 307 299 283 254 255 216 220 215 209 209 215 208 206 215 226 222 236 235 241 240 241 235 227 230 220 222 229 231 231 229
335 334 330 333 326 326 324 326 323 325 321 321 321 323 328 318 307 286 242 240 222 208 206 203 205 200 196 203 207 224 234 235 235 235 231 239 234 208 227 216 218 227 230 231 230
336 320 333 328 328 327 325 326 328 321 321 319 319 322 322 318 315 298 249 238 222 205 203 197 194 198 192 194 205 208 226 231 226 229 236 239 238 239 241 225 217 226 228 230 233
319 334 329 327 320 329 329 328 329 323 325 326 324 317 314 318 315 289 261 232 225 212 211 193 213 196 194 199 204 209 219 228 232 231 231 231 232 232 223 221 225 223 226 228 231
334 333 329 329 328 332 331 331 324 317 324 329 324 324 321 319 314 296 264 235 218 208 210 198 203 199 197 202 202 205 214 229 230 221 218 222 224 228 165 161 220 222 222 224 227
334 337 329 331 329 333 333 328 323 320 325 329 325 322 319 323 311 297 250 240 215 228 208 202 199 200 200 204 200 203 209 216 224 227 217 220 222 222 214 221 221 180 214 204 221
332 335 330 333 332 334 335 330 332 324 320 326 323 320 316 323 312 289 251 240 212 203 204 202 204 192 198 197 199 201 206 211 214 206 208 212 209 217 217 226 215 218 217 218 229
334 331 332 332 337 336 335 332 326 324 317 314 319 314 319 325 324 261 253 229 211 200 190 189 190 184 188 194 205 196 201 204 209 201 203 205 210 214 212 213 214 212 213 218 221
333 335 334 331 337 336 333 332 330 322 319 316 316 327 331 339 307 262 242 231 211 195 193 187 183 186 189 195 194 195 197 194 197 201 203 206 202 210 208 205 207 209 210 214 218